M I D A S
Marine Information and Data Acquisition System
Tripno 1358 of the Zeeleeuw from 2007-09-27 06:33:04 to 2007-09-27 14:06:36
Back to CruiseResearch ActivitiesStationsMapUnderway DataData graphs

EquipmentUnitsComment
TimeDGPSUTC
LatitudeDGPSDM.mWGS84
LongitudeDGPSDM.mWGS84
TemperatureSBE03/SBE38deg celciusITS90
ConductivitySBE21S/mITS90
SalinitySBE21 Practical Salinity Units
ChlorophylAChelsea fluorimeterg/lCalibrated in Aceton
Missing or incorrect values are displayed as -999
Sea surface data collected by the RV Zeeleeuw from 2007-09-27 06:35:30 to 2007-09-27 14:17:11
                                                                                    Next 1000 lines
Time Latitude Longitude Temperature Conductivity Salinity ChlorophylA
2007-09-27 06:35:41 51°13.603 2°56.096 -999 -999 -999 -999
2007-09-27 06:35:45 51°13.603 2°56.094 -999 -999 -999 -999
2007-09-27 06:35:50 51°13.604 2°56.091 -999 -999 -999 -999
2007-09-27 06:35:55 51°13.605 2°56.087 -999 -999 -999 -999
2007-09-27 06:36:00 51°13.606 2°56.081 -999 -999 -999 -999
2007-09-27 06:36:06 51°13.608 2°56.074 -999 -999 -999 -999
2007-09-27 06:36:11 51°13.61 2°56.068 -999 -999 -999 -999
2007-09-27 06:36:16 51°13.612 2°56.061 -999 -999 -999 -999
2007-09-27 06:36:21 51°13.614 2°56.053 -999 -999 -999 -999
2007-09-27 06:36:26 51°13.616 2°56.045 -999 -999 -999 -999
2007-09-27 06:36:31 51°13.618 2°56.036 -999 -999 -999 -999
2007-09-27 06:36:36 51°13.62 2°56.027 -999 -999 -999 -999
2007-09-27 06:36:41 51°13.622 2°56.018 -999 -999 -999 -999
2007-09-27 06:36:45 51°13.624 2°56.01 -999 -999 -999 -999
2007-09-27 06:36:51 51°13.627 2°55.999 -999 -999 -999 -999
2007-09-27 06:36:56 51°13.63 2°55.989 -999 -999 -999 -999
2007-09-27 06:37:01 51°13.633 2°55.978 -999 -999 -999 -999
2007-09-27 06:37:05 51°13.635 2°55.97 -999 -999 -999 -999
2007-09-27 06:37:11 51°13.64 2°55.957 -999 -999 -999 -999
2007-09-27 06:37:16 51°13.643 2°55.946 -999 -999 -999 -999
2007-09-27 06:37:21 51°13.647 2°55.935 -999 -999 -999 -999
2007-09-27 06:37:26 51°13.65 2°55.925 -999 -999 -999 -999
2007-09-27 06:37:31 51°13.654 2°55.914 -999 -999 -999 -999
2007-09-27 06:37:36 51°13.657 2°55.902 -999 -999 -999 -999
2007-09-27 06:37:41 51°13.661 2°55.891 -999 -999 -999 -999
2007-09-27 06:37:46 51°13.664 2°55.88 -999 -999 -999 -999
2007-09-27 06:37:51 51°13.668 2°55.869 -999 -999 -999 -999
2007-09-27 06:37:56 51°13.671 2°55.858 -999 -999 -999 -999
2007-09-27 06:38:01 51°13.675 2°55.847 -999 -999 -999 -999
2007-09-27 06:38:06 51°13.679 2°55.836 -999 -999 -999 -999
2007-09-27 06:38:11 51°13.684 2°55.826 -999 -999 -999 -999
2007-09-27 06:38:16 51°13.689 2°55.816 -999 -999 -999 -999
2007-09-27 06:38:20 51°13.693 2°55.809 -999 -999 -999 -999
2007-09-27 06:38:26 51°13.7 2°55.797 -999 -999 -999 -999
2007-09-27 06:38:31 51°13.706 2°55.788 -999 -999 -999 -999
2007-09-27 06:38:36 51°13.712 2°55.779 -999 -999 -999 -999
2007-09-27 06:38:41 51°13.718 2°55.77 -999 -999 -999 -999
2007-09-27 06:38:46 51°13.724 2°55.763 -999 -999 -999 -999
2007-09-27 06:38:51 51°13.729 2°55.756 -999 -999 -999 -999
2007-09-27 06:38:56 51°13.734 2°55.75 -999 -999 -999 -999
2007-09-27 06:39:01 51°13.738 2°55.745 -999 -999 -999 -999
2007-09-27 06:39:05 51°13.741 2°55.742 -999 -999 -999 -999
2007-09-27 06:39:10 51°13.744 2°55.738 -999 -999 -999 -999
2007-09-27 06:39:16 51°13.748 2°55.734 -999 -999 -999 -999
2007-09-27 06:39:21 51°13.75 2°55.731 -999 -999 -999 -999
2007-09-27 06:39:25 51°13.752 2°55.729 -999 -999 -999 -999
2007-09-27 06:39:31 51°13.754 2°55.726 -999 -999 -999 -999
2007-09-27 06:39:36 51°13.755 2°55.725 -999 -999 -999 -999
2007-09-27 06:39:41 51°13.756 2°55.723 -999 -999 -999 -999
2007-09-27 06:39:46 51°13.757 2°55.721 -999 -999 -999 -999
2007-09-27 06:39:51 51°13.759 2°55.719 -999 -999 -999 -999
2007-09-27 06:39:56 51°13.761 2°55.717 -999 -999 -999 -999
2007-09-27 06:40:01 51°13.762 2°55.715 -999 -999 -999 -999
2007-09-27 06:40:06 51°13.765 2°55.712 -999 -999 -999 -999
2007-09-27 06:40:11 51°13.767 2°55.709 -999 -999 -999 -999
2007-09-27 06:40:15 51°13.769 2°55.707 -999 -999 -999 -999
2007-09-27 06:40:21 51°13.772 2°55.702 -999 -999 -999 -999
2007-09-27 06:40:26 51°13.775 2°55.699 -999 -999 -999 -999
2007-09-27 06:40:31 51°13.778 2°55.695 -999 -999 -999 -999
2007-09-27 06:40:36 51°13.781 2°55.691 -999 -999 -999 -999
2007-09-27 06:40:40 51°13.784 2°55.688 -999 -999 -999 -999
2007-09-27 06:40:46 51°13.789 2°55.683 -999 -999 -999 -999
2007-09-27 06:40:51 51°13.793 2°55.678 -999 -999 -999 -999
2007-09-27 06:40:56 51°13.797 2°55.674 -999 -999 -999 -999
2007-09-27 06:41:01 51°13.802 2°55.67 -999 -999 -999 -999
2007-09-27 06:41:06 51°13.807 2°55.666 -999 -999 -999 -999
2007-09-27 06:41:11 51°13.812 2°55.661 -999 -999 -999 -999
2007-09-27 06:41:16 51°13.817 2°55.657 -999 -999 -999 -999
2007-09-27 06:41:21 51°13.822 2°55.652 -999 -999 -999 -999
2007-09-27 06:41:25 51°13.826 2°55.649 -999 -999 -999 -999
2007-09-27 06:41:31 51°13.832 2°55.643 -999 -999 -999 -999
2007-09-27 06:41:36 51°13.838 2°55.639 -999 -999 -999 -999
2007-09-27 06:41:41 51°13.843 2°55.635 -999 -999 -999 -999
2007-09-27 06:41:45 51°13.848 2°55.631 -999 -999 -999 -999
2007-09-27 06:41:50 51°13.853 2°55.627 -999 -999 -999 -999
2007-09-27 06:41:56 51°13.861 2°55.622 -999 -999 -999 -999
2007-09-27 06:42:01 51°13.867 2°55.619 -999 -999 -999 -999
2007-09-27 06:42:06 51°13.872 2°55.616 -999 -999 -999 -999
2007-09-27 06:42:11 51°13.878 2°55.613 -999 -999 -999 -999
2007-09-27 06:42:16 51°13.883 2°55.611 -999 -999 -999 -999
2007-09-27 06:42:21 51°13.888 2°55.609 -999 -999 -999 -999
2007-09-27 06:42:26 51°13.893 2°55.607 -999 -999 -999 -999
2007-09-27 06:42:31 51°13.899 2°55.606 -999 -999 -999 -999
2007-09-27 06:42:36 51°13.903 2°55.604 -999 -999 -999 -999
2007-09-27 06:42:41 51°13.908 2°55.603 -999 -999 -999 -999
2007-09-27 06:42:46 51°13.913 2°55.602 -999 -999 -999 -999
2007-09-27 06:42:51 51°13.917 2°55.602 -999 -999 -999 -999
2007-09-27 06:42:56 51°13.922 2°55.601 -999 -999 -999 -999
2007-09-27 06:43:01 51°13.926 2°55.601 -999 -999 -999 -999
2007-09-27 06:43:05 51°13.929 2°55.601 -999 -999 -999 -999
2007-09-27 06:43:10 51°13.933 2°55.6 -999 -999 -999 -999
2007-09-27 06:43:15 51°13.936 2°55.6 -999 -999 -999 -999
2007-09-27 06:43:21 51°13.941 2°55.601 -999 -999 -999 -999
2007-09-27 06:43:25 51°13.943 2°55.601 -999 -999 -999 -999
2007-09-27 06:43:30 51°13.947 2°55.601 -999 -999 -999 -999
2007-09-27 06:43:35 51°13.95 2°55.602 -999 -999 -999 -999
2007-09-27 06:43:41 51°13.953 2°55.603 -999 -999 -999 -999
2007-09-27 06:43:45 51°13.956 2°55.604 -999 -999 -999 -999
2007-09-27 06:43:50 51°13.958 2°55.605 -999 -999 -999 -999
2007-09-27 06:43:56 51°13.962 2°55.606 -999 -999 -999 -999
2007-09-27 06:44:01 51°13.964 2°55.607 -999 -999 -999 -999
2007-09-27 06:44:05 51°13.966 2°55.608 -999 -999 -999 -999
2007-09-27 06:44:10 51°13.968 2°55.609 -999 -999 -999 -999
2007-09-27 06:44:16 51°13.971 2°55.611 -999 -999 -999 -999
2007-09-27 06:44:21 51°13.973 2°55.612 -999 -999 -999 -999
2007-09-27 06:44:25 51°13.975 2°55.613 -999 -999 -999 -999
2007-09-27 06:44:30 51°13.977 2°55.615 -999 -999 -999 -999
2007-09-27 06:44:36 51°13.979 2°55.616 -999 -999 -999 -999
2007-09-27 06:44:41 51°13.981 2°55.617 -999 -999 -999 -999
2007-09-27 06:44:45 51°13.982 2°55.618 -999 -999 -999 -999
2007-09-27 06:44:50 51°13.983 2°55.62 -999 -999 -999 -999
2007-09-27 06:44:55 51°13.985 2°55.621 -999 -999 -999 -999
2007-09-27 06:45:01 51°13.986 2°55.622 -999 -999 -999 -999
2007-09-27 06:45:05 51°13.987 2°55.623 -999 -999 -999 -999
2007-09-27 06:45:10 51°13.988 2°55.624 -999 -999 -999 -999
2007-09-27 06:45:15 51°13.989 2°55.625 -999 -999 -999 -999
2007-09-27 06:45:21 51°13.99 2°55.626 -999 -999 -999 -999
2007-09-27 06:45:25 51°13.99 2°55.626 -999 -999 -999 -999
2007-09-27 06:45:30 51°13.991 2°55.627 -999 -999 -999 -999
2007-09-27 06:45:35 51°13.991 2°55.627 -999 -999 -999 -999
2007-09-27 06:45:40 51°13.991 2°55.626 -999 -999 -999 -999
2007-09-27 06:45:45 51°13.992 2°55.626 -999 -999 -999 -999
2007-09-27 06:45:50 51°13.992 2°55.626 -999 -999 -999 -999
2007-09-27 06:45:55 51°13.992 2°55.625 -999 -999 -999 -999
2007-09-27 06:46:01 51°13.993 2°55.625 -999 -999 -999 -999
2007-09-27 06:46:05 51°13.993 2°55.625 -999 -999 -999 -999
2007-09-27 06:46:10 51°13.993 2°55.625 -999 -999 -999 -999
2007-09-27 06:46:16 51°13.993 2°55.624 -999 -999 -999 -999
2007-09-27 06:46:21 51°13.994 2°55.623 -999 -999 -999 -999
2007-09-27 06:46:25 51°13.994 2°55.623 -999 -999 -999 -999
2007-09-27 06:46:30 51°13.994 2°55.623 -999 -999 -999 -999
2007-09-27 06:46:36 51°13.995 2°55.622 -999 -999 -999 -999
2007-09-27 06:46:41 51°13.995 2°55.622 -999 -999 -999 -999
2007-09-27 06:46:45 51°13.995 2°55.622 -999 -999 -999 -999
2007-09-27 06:46:50 51°13.995 2°55.621 -999 -999 -999 -999
2007-09-27 06:46:55 51°13.996 2°55.621 -999 -999 -999 -999
2007-09-27 06:47:01 51°13.996 2°55.621 -999 -999 -999 -999
2007-09-27 06:47:05 51°13.997 2°55.62 -999 -999 -999 -999
2007-09-27 06:47:10 51°13.997 2°55.62 -999 -999 -999 -999
2007-09-27 06:47:15 51°13.997 2°55.62 -999 -999 -999 -999
2007-09-27 06:47:21 51°13.998 2°55.62 -999 -999 -999 -999
2007-09-27 06:47:25 51°13.998 2°55.619 -999 -999 -999 -999
2007-09-27 06:47:30 51°13.998 2°55.619 -999 -999 -999 -999
2007-09-27 06:47:35 51°13.999 2°55.619 -999 -999 -999 -999
2007-09-27 06:47:41 51°13.999 2°55.619 -999 -999 -999 -999
2007-09-27 06:47:46 51°13.999 2°55.619 -999 -999 -999 -999
2007-09-27 06:47:50 51°14 2°55.619 -999 -999 -999 -999
2007-09-27 06:47:55 51°14 2°55.619 -999 -999 -999 -999
2007-09-27 06:48:01 51°14.001 2°55.618 -999 -999 -999 -999
2007-09-27 06:48:05 51°14.001 2°55.618 -999 -999 -999 -999
2007-09-27 06:48:10 51°14.001 2°55.618 -999 -999 -999 -999
2007-09-27 06:48:15 51°14.001 2°55.618 -999 -999 -999 -999
2007-09-27 06:48:21 51°14.002 2°55.618 -999 -999 -999 -999
2007-09-27 06:48:25 51°14.002 2°55.618 -999 -999 -999 -999
2007-09-27 06:48:30 51°14.002 2°55.617 -999 -999 -999 -999
2007-09-27 06:48:35 51°14.002 2°55.617 -999 -999 -999 -999
2007-09-27 06:48:41 51°14.003 2°55.617 -999 -999 -999 -999
2007-09-27 06:48:45 51°14.003 2°55.617 -999 -999 -999 -999
2007-09-27 06:48:50 51°14.003 2°55.617 -999 -999 -999 -999
2007-09-27 06:48:56 51°14.003 2°55.617 -999 -999 -999 -999
2007-09-27 06:49:01 51°14.004 2°55.616 -999 -999 -999 -999
2007-09-27 06:49:05 51°14.004 2°55.616 -999 -999 -999 -999
2007-09-27 06:49:10 51°14.004 2°55.616 -999 -999 -999 -999
2007-09-27 06:49:15 51°14.004 2°55.615 -999 -999 -999 -999
2007-09-27 06:49:21 51°14.005 2°55.615 -999 -999 -999 -999
2007-09-27 06:49:25 51°14.005 2°55.615 -999 -999 -999 -999
2007-09-27 06:49:30 51°14.005 2°55.615 -999 -999 -999 -999
2007-09-27 06:49:35 51°14.005 2°55.614 -999 -999 -999 -999
2007-09-27 06:49:41 51°14.006 2°55.614 -999 -999 -999 -999
2007-09-27 06:49:45 51°14.006 2°55.614 -999 -999 -999 -999
2007-09-27 06:49:50 51°14.006 2°55.614 -999 -999 -999 -999
2007-09-27 06:49:55 51°14.006 2°55.614 -999 -999 -999 -999
2007-09-27 06:50:00 51°14.006 2°55.614 -999 -999 -999 -999
2007-09-27 06:50:05 51°14.007 2°55.614 -999 -999 -999 -999
2007-09-27 06:50:10 51°14.007 2°55.614 -999 -999 -999 -999
2007-09-27 06:50:15 51°14.007 2°55.614 -999 -999 -999 -999
2007-09-27 06:50:21 51°14.007 2°55.614 -999 -999 -999 -999
2007-09-27 06:50:25 51°14.007 2°55.614 -999 -999 -999 -999
2007-09-27 06:50:30 51°14.007 2°55.614 -999 -999 -999 -999
2007-09-27 06:50:36 51°14.007 2°55.613 -999 -999 -999 -999
2007-09-27 06:50:41 51°14.007 2°55.613 -999 -999 -999 -999
2007-09-27 06:50:45 51°14.007 2°55.613 -999 -999 -999 -999
2007-09-27 06:50:50 51°14.007 2°55.613 -999 -999 -999 -999
2007-09-27 06:50:56 51°14.008 2°55.613 -999 -999 -999 -999
2007-09-27 06:51:01 51°14.008 2°55.613 -999 -999 -999 -999
2007-09-27 06:51:05 51°14.008 2°55.613 -999 -999 -999 -999
2007-09-27 06:51:10 51°14.008 2°55.613 -999 -999 -999 -999
2007-09-27 06:51:16 51°14.008 2°55.614 -999 -999 -999 -999
2007-09-27 06:51:21 51°14.008 2°55.614 -999 -999 -999 -999
2007-09-27 06:51:25 51°14.007 2°55.614 -999 -999 -999 -999
2007-09-27 06:51:30 51°14.007 2°55.615 -999 -999 -999 -999
2007-09-27 06:51:35 51°14.007 2°55.616 -999 -999 -999 -999
2007-09-27 06:51:41 51°14.007 2°55.616 -999 -999 -999 -999
2007-09-27 06:51:45 51°14.007 2°55.617 -999 -999 -999 -999
2007-09-27 06:51:50 51°14.007 2°55.617 -999 -999 -999 -999
2007-09-27 06:51:55 51°14.006 2°55.618 -999 -999 -999 -999
2007-09-27 06:52:01 51°14.006 2°55.619 -999 -999 -999 -999
2007-09-27 06:52:05 51°14.006 2°55.619 -999 -999 -999 -999
2007-09-27 06:52:10 51°14.006 2°55.62 -999 -999 -999 -999
2007-09-27 06:52:15 51°14.006 2°55.621 -999 -999 -999 -999
2007-09-27 06:52:21 51°14.005 2°55.622 -999 -999 -999 -999
2007-09-27 06:52:25 51°14.005 2°55.623 -999 -999 -999 -999
2007-09-27 06:52:30 51°14.005 2°55.624 -999 -999 -999 -999
2007-09-27 06:52:35 51°14.005 2°55.624 -999 -999 -999 -999
2007-09-27 06:52:41 51°14.004 2°55.625 -999 -999 -999 -999
2007-09-27 06:52:45 51°14.004 2°55.626 -999 -999 -999 -999
2007-09-27 06:52:50 51°14.004 2°55.627 -999 -999 -999 -999
2007-09-27 06:52:56 51°14.004 2°55.628 -999 -999 -999 -999
2007-09-27 06:53:01 51°14.004 2°55.629 -999 -999 -999 -999
2007-09-27 06:53:05 51°14.003 2°55.63 -999 -999 -999 -999
2007-09-27 06:53:10 51°14.003 2°55.631 -999 -999 -999 -999
2007-09-27 06:53:15 51°14.003 2°55.632 -999 -999 -999 -999
2007-09-27 06:53:21 51°14.003 2°55.633 -999 -999 -999 -999
2007-09-27 06:53:25 51°14.003 2°55.634 -999 -999 -999 -999
2007-09-27 06:53:30 51°14.002 2°55.634 -999 -999 -999 -999
2007-09-27 06:53:36 51°14.002 2°55.635 -999 -999 -999 -999
2007-09-27 06:53:41 51°14.002 2°55.635 -999 -999 -999 -999
2007-09-27 06:53:44 51°14.002 2°55.635 -999 -999 -999 -999
2007-09-27 06:53:50 51°14.002 2°55.636 -999 -999 -999 -999
2007-09-27 06:53:56 51°14.002 2°55.637 -999 -999 -999 -999
2007-09-27 06:54:01 51°14.003 2°55.637 -999 -999 -999 -999
2007-09-27 06:54:05 51°14.003 2°55.636 -999 -999 -999 -999
2007-09-27 06:54:10 51°14.003 2°55.635 -999 -999 -999 -999
2007-09-27 06:54:15 51°14.004 2°55.634 -999 -999 -999 -999
2007-09-27 06:54:21 51°14.005 2°55.631 -999 -999 -999 -999
2007-09-27 06:54:25 51°14.006 2°55.629 -999 -999 -999 -999
2007-09-27 06:54:30 51°14.007 2°55.625 -999 -999 -999 -999
2007-09-27 06:54:35 51°14.009 2°55.62 -999 -999 -999 -999
2007-09-27 06:54:40 51°14.011 2°55.614 -999 -999 -999 -999
2007-09-27 06:54:45 51°14.014 2°55.608 -999 -999 -999 -999
2007-09-27 06:54:50 51°14.017 2°55.6 -999 -999 -999 -999
2007-09-27 06:54:55 51°14.02 2°55.591 -999 -999 -999 -999
2007-09-27 06:55:01 51°14.025 2°55.58 -999 -999 -999 -999
2007-09-27 06:55:05 51°14.028 2°55.572 -999 -999 -999 -999
2007-09-27 06:55:10 51°14.032 2°55.561 -999 -999 -999 -999
2007-09-27 06:55:16 51°14.038 2°55.548 -999 -999 -999 -999
2007-09-27 06:55:21 51°14.043 2°55.536 -999 -999 -999 -999
2007-09-27 06:55:25 51°14.047 2°55.526 -999 -999 -999 -999
2007-09-27 06:55:30 51°14.052 2°55.514 -999 -999 -999 -999
2007-09-27 06:55:36 51°14.059 2°55.5 -999 -999 -999 -999
2007-09-27 06:55:41 51°14.066 2°55.488 -999 -999 -999 -999
2007-09-27 06:55:46 51°14.074 2°55.478 -999 -999 -999 -999
2007-09-27 06:55:51 51°14.082 2°55.468 -999 -999 -999 -999
2007-09-27 06:55:55 51°14.088 2°55.46 -999 -999 -999 -999
2007-09-27 06:56:01 51°14.099 2°55.448 -999 -999 -999 -999
2007-09-27 06:56:06 51°14.108 2°55.439 -999 -999 -999 -999
2007-09-27 06:56:11 51°14.117 2°55.429 -999 -999 -999 -999
2007-09-27 06:56:15 51°14.124 2°55.422 -999 -999 -999 -999
2007-09-27 06:56:21 51°14.135 2°55.411 -999 -999 -999 -999
2007-09-27 06:56:26 51°14.144 2°55.401 -999 -999 -999 -999
2007-09-27 06:56:31 51°14.154 2°55.391 -999 -999 -999 -999
2007-09-27 06:56:36 51°14.164 2°55.381 -999 -999 -999 -999
2007-09-27 06:56:41 51°14.173 2°55.371 -999 -999 -999 -999
2007-09-27 06:56:46 51°14.183 2°55.36 -999 -999 -999 -999
2007-09-27 06:56:51 51°14.193 2°55.348 -999 -999 -999 -999
2007-09-27 06:56:56 51°14.204 2°55.336 -999 -999 -999 -999
2007-09-27 06:57:01 51°14.214 2°55.323 -999 -999 -999 -999
2007-09-27 06:57:05 51°14.223 2°55.312 -999 -999 -999 -999
2007-09-27 06:57:10 51°14.234 2°55.298 -999 -999 -999 -999
2007-09-27 06:57:15 51°14.244 2°55.284 -999 -999 -999 -999
2007-09-27 06:57:21 51°14.257 2°55.266 -999 -999 -999 -999
2007-09-27 06:57:25 51°14.265 2°55.252 -999 -999 -999 -999
2007-09-27 06:57:30 51°14.275 2°55.236 -999 -999 -999 -999
2007-09-27 06:57:35 51°14.285 2°55.218 -999 -999 -999 -999
2007-09-27 06:57:41 51°14.297 2°55.197 -999 -999 -999 -999
2007-09-27 06:57:45 51°14.305 2°55.182 -999 -999 -999 -999
2007-09-27 06:57:50 51°14.314 2°55.164 -999 -999 -999 -999
2007-09-27 06:57:56 51°14.325 2°55.142 -999 -999 -999 -999
2007-09-27 06:58:00 51°14.332 2°55.126 -999 -999 -999 -999
2007-09-27 06:58:05 51°14.34 2°55.107 -999 -999 -999 -999
2007-09-27 06:58:10 51°14.349 2°55.087 -999 -999 -999 -999
2007-09-27 06:58:15 51°14.357 2°55.067 -999 -999 -999 -999
2007-09-27 06:58:21 51°14.367 2°55.043 -999 -999 -999 -999
2007-09-27 06:58:25 51°14.374 2°55.027 -999 -999 -999 -999
2007-09-27 06:58:30 51°14.382 2°55.006 -999 -999 -999 -999
2007-09-27 06:58:35 51°14.39 2°54.984 -999 -999 -999 -999
2007-09-27 06:58:41 51°14.397 2°54.956 -999 -999 -999 -999
2007-09-27 06:58:45 51°14.401 2°54.937 -999 -999 -999 -999
2007-09-27 06:58:50 51°14.404 2°54.912 -999 -999 -999 -999
2007-09-27 06:58:55 51°14.407 2°54.886 -999 -999 -999 -999
2007-09-27 06:59:01 51°14.407 2°54.854 -999 -999 -999 -999
2007-09-27 06:59:05 51°14.407 2°54.833 -999 -999 -999 -999
2007-09-27 06:59:10 51°14.407 2°54.805 -999 -999 -999 -999
2007-09-27 06:59:15 51°14.407 2°54.777 -999 -999 -999 -999
2007-09-27 06:59:21 51°14.407 2°54.743 -999 -999 -999 -999
2007-09-27 06:59:26 51°14.408 2°54.715 -999 -999 -999 -999
2007-09-27 06:59:30 51°14.407 2°54.692 -999 -999 -999 -999
2007-09-27 06:59:35 51°14.407 2°54.663 -999 -999 -999 -999
2007-09-27 06:59:40 51°14.405 2°54.634 -999 -999 -999 -999
2007-09-27 06:59:45 51°14.403 2°54.606 -999 -999 -999 -999
2007-09-27 06:59:50 51°14.4 2°54.576 -999 -999 -999 -999
2007-09-27 06:59:56 51°14.395 2°54.541 -999 -999 -999 -999
2007-09-27 07:00:01 51°14.39 2°54.513 -999 -999 -999 -999
2007-09-27 07:00:05 51°14.386 2°54.489 -999 -999 -999 -999
2007-09-27 07:00:10 51°14.378 2°54.462 -999 -999 -999 -999
2007-09-27 07:00:15 51°14.371 2°54.434 -999 -999 -999 -999
2007-09-27 07:00:20 51°14.36 2°54.409 -999 -999 -999 -999
2007-09-27 07:00:25 51°14.352 2°54.382 -999 -999 -999 -999
2007-09-27 07:00:29 51°14.343 2°54.363 -999 -999 -999 -999
2007-09-27 07:00:34 51°14.334 2°54.336 -999 -999 -999 -999
2007-09-27 07:00:39 51°14.324 2°54.31 -999 -999 -999 -999
2007-09-27 07:00:44 51°14.314 2°54.284 -999 -999 -999 -999
2007-09-27 07:00:49 51°14.306 2°54.257 -999 -999 -999 -999
2007-09-27 07:00:53 51°14.298 2°54.236 -999 -999 -999 -999
2007-09-27 07:00:58 51°14.288 2°54.21 -999 -999 -999 -999
2007-09-27 07:01:03 51°14.278 2°54.184 -999 -999 -999 -999
2007-09-27 07:01:08 51°14.269 2°54.156 -999 -999 -999 -999
2007-09-27 07:01:13 51°14.259 2°54.131 -999 -999 -999 -999
2007-09-27 07:01:17 51°14.251 2°54.109 -999 -999 -999 -999
2007-09-27 07:01:22 51°14.239 2°54.085 -999 -999 -999 -999
2007-09-27 07:01:27 51°14.231 2°54.057 -999 -999 -999 -999
2007-09-27 07:01:32 51°14.22 2°54.032 -999 -999 -999 -999
2007-09-27 07:01:37 51°14.209 2°54.007 -999 -999 -999 -999
2007-09-27 07:01:42 51°14.201 2°53.98 -999 -999 -999 -999
2007-09-27 07:01:47 51°14.191 2°53.953 -999 -999 -999 -999
2007-09-27 07:01:52 51°14.182 2°53.926 -999 -999 -999 -999
2007-09-27 07:01:57 51°14.17 2°53.901 -999 -999 -999 -999
2007-09-27 07:02:02 51°14.162 2°53.873 -999 -999 -999 -999
2007-09-27 07:02:07 51°14.151 2°53.848 -999 -999 -999 -999
2007-09-27 07:02:12 51°14.142 2°53.82 -999 -999 -999 -999
2007-09-27 07:02:16 51°14.133 2°53.8 -999 -999 -999 -999
2007-09-27 07:02:22 51°14.122 2°53.767 -999 -999 -999 -999
2007-09-27 07:02:27 51°14.111 2°53.742 -999 -999 -999 -999
2007-09-27 07:02:32 51°14.101 2°53.715 -999 -999 -999 -999
2007-09-27 07:02:37 51°14.091 2°53.688 -999 -999 -999 -999
2007-09-27 07:02:42 51°14.081 2°53.661 -999 -999 -999 -999
2007-09-27 07:02:47 51°14.072 2°53.634 -999 -999 -999 -999
2007-09-27 07:02:52 51°14.062 2°53.607 -999 -999 -999 -999
2007-09-27 07:02:57 51°14.053 2°53.58 -999 -999 -999 -999
2007-09-27 07:03:02 51°14.044 2°53.553 -999 -999 -999 -999
2007-09-27 07:03:07 51°14.035 2°53.525 -999 -999 -999 -999
2007-09-27 07:03:12 51°14.025 2°53.498 -999 -999 -999 -999
2007-09-27 07:03:17 51°14.017 2°53.47 -999 -999 -999 -999
2007-09-27 07:03:22 51°14.007 2°53.443 -999 -999 -999 -999
2007-09-27 07:03:27 51°13.999 2°53.414 -999 -999 -999 -999
2007-09-27 07:03:32 51°13.989 2°53.387 -999 -999 -999 -999
2007-09-27 07:03:37 51°13.98 2°53.359 -999 -999 -999 -999
2007-09-27 07:03:42 51°13.97 2°53.333 -999 -999 -999 -999
2007-09-27 07:03:47 51°13.96 2°53.305 -999 -999 -999 -999
2007-09-27 07:03:52 51°13.95 2°53.278 -999 -999 -999 -999
2007-09-27 07:03:57 51°13.94 2°53.251 -999 -999 -999 -999
2007-09-27 07:04:02 51°13.93 2°53.224 -999 -999 -999 -999
2007-09-27 07:04:07 51°13.919 2°53.197 -999 -999 -999 -999
2007-09-27 07:04:12 51°13.911 2°53.169 -999 -999 -999 -999
2007-09-27 07:04:17 51°13.898 2°53.144 -999 -999 -999 -999
2007-09-27 07:04:22 51°13.891 2°53.114 -999 -999 -999 -999
2007-09-27 07:04:27 51°13.879 2°53.089 -999 -999 -999 -999
2007-09-27 07:04:32 51°13.871 2°53.059 -999 -999 -999 -999
2007-09-27 07:04:37 51°13.86 2°53.034 -999 -999 -999 -999
2007-09-27 07:04:42 51°13.85 2°53.006 -999 -999 -999 -999
2007-09-27 07:04:47 51°13.84 2°52.979 -999 -999 -999 -999
2007-09-27 07:04:52 51°13.83 2°52.951 -999 -999 -999 -999
2007-09-27 07:04:57 51°13.82 2°52.924 -999 -999 -999 -999
2007-09-27 07:05:02 51°13.81 2°52.896 -999 -999 -999 -999
2007-09-27 07:05:07 51°13.801 2°52.868 -999 -999 -999 -999
2007-09-27 07:05:12 51°13.791 2°52.841 -999 -999 -999 -999
2007-09-27 07:05:17 51°13.782 2°52.812 -999 -999 -999 -999
2007-09-27 07:05:22 51°13.774 2°52.783 -999 -999 -999 -999
2007-09-27 07:05:27 51°13.764 2°52.756 -999 -999 -999 -999
2007-09-27 07:05:32 51°13.754 2°52.728 -999 -999 -999 -999
2007-09-27 07:05:37 51°13.745 2°52.7 -999 -999 -999 -999
2007-09-27 07:05:42 51°13.734 2°52.673 -999 -999 -999 -999
2007-09-27 07:05:47 51°13.725 2°52.644 -999 -999 -999 -999
2007-09-27 07:05:52 51°13.713 2°52.617 -999 -999 -999 -999
2007-09-27 07:05:57 51°13.705 2°52.589 -999 -999 -999 -999
2007-09-27 07:06:02 51°13.694 2°52.562 -999 -999 -999 -999
2007-09-27 07:06:07 51°13.685 2°52.534 -999 -999 -999 -999
2007-09-27 07:06:12 51°13.675 2°52.506 -999 -999 -999 -999
2007-09-27 07:06:17 51°13.664 2°52.479 -999 -999 -999 -999
2007-09-27 07:06:22 51°13.654 2°52.452 -999 -999 -999 -999
2007-09-27 07:06:27 51°13.645 2°52.424 -999 -999 -999 -999
2007-09-27 07:06:32 51°13.633 2°52.398 -999 -999 -999 -999
2007-09-27 07:06:37 51°13.623 2°52.371 -999 -999 -999 -999
2007-09-27 07:06:42 51°13.612 2°52.344 -999 -999 -999 -999
2007-09-27 07:06:47 51°13.603 2°52.316 -999 -999 -999 -999
2007-09-27 07:06:52 51°13.592 2°52.289 -999 -999 -999 -999
2007-09-27 07:06:57 51°13.583 2°52.261 -999 -999 -999 -999
2007-09-27 07:07:02 51°13.571 2°52.235 -999 -999 -999 -999
2007-09-27 07:07:07 51°13.562 2°52.207 -999 -999 -999 -999
2007-09-27 07:07:12 51°13.551 2°52.179 -999 -999 -999 -999
2007-09-27 07:07:17 51°13.542 2°52.15 -999 -999 -999 -999
2007-09-27 07:07:22 51°13.531 2°52.125 -999 -999 -999 -999
2007-09-27 07:07:27 51°13.522 2°52.095 -999 -999 -999 -999
2007-09-27 07:07:32 51°13.513 2°52.067 -999 -999 -999 -999
2007-09-27 07:07:37 51°13.502 2°52.039 -999 -999 -999 -999
2007-09-27 07:07:42 51°13.494 2°52.011 -999 -999 -999 -999
2007-09-27 07:07:47 51°13.484 2°51.983 -999 -999 -999 -999
2007-09-27 07:07:52 51°13.474 2°51.956 -999 -999 -999 -999
2007-09-27 07:07:57 51°13.464 2°51.928 -999 -999 -999 -999
2007-09-27 07:08:02 51°13.453 2°51.902 -999 -999 -999 -999
2007-09-27 07:08:07 51°13.444 2°51.872 -999 -999 -999 -999
2007-09-27 07:08:12 51°13.434 2°51.845 -999 -999 -999 -999
2007-09-27 07:08:17 51°13.425 2°51.817 -999 -999 -999 -999
2007-09-27 07:08:22 51°13.413 2°51.79 -999 -999 -999 -999
2007-09-27 07:08:27 51°13.404 2°51.761 -999 -999 -999 -999
2007-09-27 07:08:32 51°13.392 2°51.735 -999 -999 -999 -999
2007-09-27 07:08:37 51°13.384 2°51.704 -999 -999 -999 -999
2007-09-27 07:08:42 51°13.374 2°51.678 -999 -999 -999 -999
2007-09-27 07:08:47 51°13.364 2°51.651 -999 -999 -999 -999
2007-09-27 07:08:52 51°13.355 2°51.622 -999 -999 -999 -999
2007-09-27 07:08:57 51°13.343 2°51.596 -999 -999 -999 -999
2007-09-27 07:09:02 51°13.334 2°51.566 -999 -999 -999 -999
2007-09-27 07:09:07 51°13.324 2°51.539 -999 -999 -999 -999
2007-09-27 07:09:12 51°13.314 2°51.511 -999 -999 -999 -999
2007-09-27 07:09:17 51°13.303 2°51.483 -999 -999 -999 -999
2007-09-27 07:09:22 51°13.293 2°51.455 -999 -999 -999 -999
2007-09-27 07:09:27 51°13.283 2°51.429 -999 -999 -999 -999
2007-09-27 07:09:32 51°13.271 2°51.402 -999 -999 -999 -999
2007-09-27 07:09:37 51°13.263 2°51.372 -999 -999 -999 -999
2007-09-27 07:09:42 51°13.252 2°51.345 -999 -999 -999 -999
2007-09-27 07:09:47 51°13.243 2°51.315 -999 -999 -999 -999
2007-09-27 07:09:52 51°13.232 2°51.288 -999 -999 -999 -999
2007-09-27 07:09:57 51°13.223 2°51.26 -999 -999 -999 -999
2007-09-27 07:10:02 51°13.212 2°51.234 -999 -999 -999 -999
2007-09-27 07:10:07 51°13.202 2°51.204 -999 -999 -999 -999
2007-09-27 07:10:12 51°13.192 2°51.178 -999 -999 -999 -999
2007-09-27 07:10:17 51°13.181 2°51.15 -999 -999 -999 -999
2007-09-27 07:10:22 51°13.173 2°51.12 -999 -999 -999 -999
2007-09-27 07:10:27 51°13.163 2°51.093 -999 -999 -999 -999
2007-09-27 07:10:32 51°13.153 2°51.064 -999 -999 -999 -999
2007-09-27 07:10:37 51°13.143 2°51.036 -999 -999 -999 -999
2007-09-27 07:10:42 51°13.132 2°51.01 -999 -999 -999 -999
2007-09-27 07:10:47 51°13.123 2°50.981 -999 -999 -999 -999
2007-09-27 07:10:52 51°13.113 2°50.953 -999 -999 -999 -999
2007-09-27 07:10:57 51°13.103 2°50.925 -999 -999 -999 -999
2007-09-27 07:11:02 51°13.093 2°50.897 -999 -999 -999 -999
2007-09-27 07:11:07 51°13.083 2°50.869 -999 -999 -999 -999
2007-09-27 07:11:12 51°13.073 2°50.841 -999 -999 -999 -999
2007-09-27 07:11:17 51°13.062 2°50.814 -999 -999 -999 -999
2007-09-27 07:11:22 51°13.053 2°50.786 -999 -999 -999 -999
2007-09-27 07:11:27 51°13.043 2°50.757 -999 -999 -999 -999
2007-09-27 07:11:32 51°13.033 2°50.728 -999 -999 -999 -999
2007-09-27 07:11:37 51°13.023 2°50.7 -999 -999 -999 -999
2007-09-27 07:11:42 51°13.013 2°50.672 -999 -999 -999 -999
2007-09-27 07:11:47 51°13.005 2°50.642 -999 -999 -999 -999
2007-09-27 07:11:52 51°12.993 2°50.616 -999 -999 -999 -999
2007-09-27 07:11:57 51°12.984 2°50.586 -999 -999 -999 -999
2007-09-27 07:12:02 51°12.974 2°50.558 -999 -999 -999 -999
2007-09-27 07:12:07 51°12.963 2°50.531 -999 -999 -999 -999
2007-09-27 07:12:12 51°12.953 2°50.502 -999 -999 -999 -999
2007-09-27 07:12:17 51°12.944 2°50.475 -999 -999 -999 -999
2007-09-27 07:12:22 51°12.933 2°50.447 -999 -999 -999 -999
2007-09-27 07:12:27 51°12.924 2°50.417 -999 -999 -999 -999
2007-09-27 07:12:32 51°12.913 2°50.39 -999 -999 -999 -999
2007-09-27 07:12:37 51°12.903 2°50.362 -999 -999 -999 -999
2007-09-27 07:12:42 51°12.894 2°50.334 -999 -999 -999 -999
2007-09-27 07:12:47 51°12.881 2°50.307 -999 -999 -999 -999
2007-09-27 07:12:52 51°12.873 2°50.276 -999 -999 -999 -999
2007-09-27 07:12:57 51°12.861 2°50.251 -999 -999 -999 -999
2007-09-27 07:13:02 51°12.852 2°50.222 -999 -999 -999 -999
2007-09-27 07:13:07 51°12.841 2°50.193 -999 -999 -999 -999
2007-09-27 07:13:12 51°12.831 2°50.167 -999 -999 -999 -999
2007-09-27 07:13:17 51°12.822 2°50.139 -999 -999 -999 -999
2007-09-27 07:13:22 51°12.81 2°50.112 -999 -999 -999 -999
2007-09-27 07:13:27 51°12.801 2°50.083 -999 -999 -999 -999
2007-09-27 07:13:32 51°12.788 2°50.058 -999 -999 -999 -999
2007-09-27 07:13:37 51°12.779 2°50.028 -999 -999 -999 -999
2007-09-27 07:13:42 51°12.768 2°50.001 -999 -999 -999 -999
2007-09-27 07:13:47 51°12.757 2°49.974 -999 -999 -999 -999
2007-09-27 07:13:52 51°12.747 2°49.946 -999 -999 -999 -999
2007-09-27 07:13:57 51°12.736 2°49.919 -999 -999 -999 -999
2007-09-27 07:14:02 51°12.725 2°49.892 -999 -999 -999 -999
2007-09-27 07:14:07 51°12.716 2°49.863 -999 -999 -999 -999
2007-09-27 07:14:12 51°12.705 2°49.836 -999 -999 -999 -999
2007-09-27 07:14:17 51°12.695 2°49.809 -999 -999 -999 -999
2007-09-27 07:14:22 51°12.684 2°49.78 -999 -999 -999 -999
2007-09-27 07:14:27 51°12.675 2°49.753 -999 -999 -999 -999
2007-09-27 07:14:32 51°12.661 2°49.727 -999 -999 -999 -999
2007-09-27 07:14:37 51°12.652 2°49.699 -999 -999 -999 -999
2007-09-27 07:14:42 51°12.641 2°49.674 -999 -999 -999 -999
2007-09-27 07:14:47 51°12.629 2°49.646 -999 -999 -999 -999
2007-09-27 07:14:52 51°12.62 2°49.617 -999 -999 -999 -999
2007-09-27 07:14:57 51°12.608 2°49.592 -999 -999 -999 -999
2007-09-27 07:15:02 51°12.598 2°49.564 -999 -999 -999 -999
2007-09-27 07:15:07 51°12.587 2°49.537 -999 -999 -999 -999
2007-09-27 07:15:12 51°12.575 2°49.509 -999 -999 -999 -999
2007-09-27 07:15:17 51°12.565 2°49.481 -999 -999 -999 -999
2007-09-27 07:15:22 51°12.555 2°49.453 -999 -999 -999 -999
2007-09-27 07:15:27 51°12.543 2°49.426 -999 -999 -999 -999
2007-09-27 07:15:32 51°12.536 2°49.396 -999 -999 -999 -999
2007-09-27 07:15:37 51°12.523 2°49.37 -999 -999 -999 -999
2007-09-27 07:15:42 51°12.515 2°49.34 -999 -999 -999 -999
2007-09-27 07:15:47 51°12.504 2°49.314 -999 -999 -999 -999
2007-09-27 07:15:52 51°12.494 2°49.286 -999 -999 -999 -999
2007-09-27 07:15:57 51°12.483 2°49.257 -999 -999 -999 -999
2007-09-27 07:16:02 51°12.474 2°49.228 -999 -999 -999 -999
2007-09-27 07:16:07 51°12.463 2°49.202 -999 -999 -999 -999
2007-09-27 07:16:12 51°12.453 2°49.173 -999 -999 -999 -999
2007-09-27 07:16:17 51°12.442 2°49.145 -999 -999 -999 -999
2007-09-27 07:16:22 51°12.434 2°49.117 -999 -999 -999 -999
2007-09-27 07:16:27 51°12.423 2°49.09 -999 -999 -999 -999
2007-09-27 07:16:32 51°12.412 2°49.061 -999 -999 -999 -999
2007-09-27 07:16:37 51°12.403 2°49.033 -999 -999 -999 -999
2007-09-27 07:16:42 51°12.393 2°49.006 -999 -999 -999 -999
2007-09-27 07:16:47 51°12.383 2°48.977 -999 -999 -999 -999
2007-09-27 07:16:52 51°12.373 2°48.949 -999 -999 -999 -999
2007-09-27 07:16:57 51°12.363 2°48.921 -999 -999 -999 -999
2007-09-27 07:17:02 51°12.353 2°48.893 -999 -999 -999 -999
2007-09-27 07:17:07 51°12.344 2°48.865 -999 -999 -999 -999
2007-09-27 07:17:12 51°12.333 2°48.837 -999 -999 -999 -999
2007-09-27 07:17:17 51°12.324 2°48.807 -999 -999 -999 -999
2007-09-27 07:17:22 51°12.313 2°48.781 -999 -999 -999 -999
2007-09-27 07:17:27 51°12.304 2°48.752 -999 -999 -999 -999
2007-09-27 07:17:32 51°12.293 2°48.724 -999 -999 -999 -999
2007-09-27 07:17:37 51°12.284 2°48.695 -999 -999 -999 -999
2007-09-27 07:17:42 51°12.274 2°48.668 -999 -999 -999 -999
2007-09-27 07:17:47 51°12.264 2°48.639 -999 -999 -999 -999
2007-09-27 07:17:52 51°12.255 2°48.612 -999 -999 -999 -999
2007-09-27 07:17:57 51°12.242 2°48.586 -999 -999 -999 -999
2007-09-27 07:18:02 51°12.234 2°48.556 -999 -999 -999 -999
2007-09-27 07:18:07 51°12.223 2°48.53 -999 -999 -999 -999
2007-09-27 07:18:12 51°12.213 2°48.502 -999 -999 -999 -999
2007-09-27 07:18:17 51°12.204 2°48.475 -999 -999 -999 -999
2007-09-27 07:18:22 51°12.194 2°48.446 -999 -999 -999 -999
2007-09-27 07:18:27 51°12.187 2°48.416 -999 -999 -999 -999
2007-09-27 07:18:32 51°12.177 2°48.389 -999 -999 -999 -999
2007-09-27 07:18:37 51°12.169 2°48.36 -999 -999 -999 -999
2007-09-27 07:18:42 51°12.161 2°48.33 -999 -999 -999 -999
2007-09-27 07:18:47 51°12.155 2°48.3 -999 -999 -999 -999
2007-09-27 07:18:52 51°12.149 2°48.271 -999 -999 -999 -999
2007-09-27 07:18:57 51°12.142 2°48.24 -999 -999 -999 -999
2007-09-27 07:19:02 51°12.138 2°48.21 -999 -999 -999 -999
2007-09-27 07:19:07 51°12.131 2°48.179 -999 -999 -999 -999
2007-09-27 07:19:12 51°12.128 2°48.148 -999 -999 -999 -999
2007-09-27 07:19:17 51°12.121 2°48.119 -999 -999 -999 -999
2007-09-27 07:19:22 51°12.117 2°48.088 -999 -999 -999 -999
2007-09-27 07:19:27 51°12.111 2°48.057 -999 -999 -999 -999
2007-09-27 07:19:32 51°12.106 2°48.026 -999 -999 -999 -999
2007-09-27 07:19:37 51°12.099 2°47.996 -999 -999 -999 -999
2007-09-27 07:19:42 51°12.095 2°47.964 -999 -999 -999 -999
2007-09-27 07:19:47 51°12.087 2°47.935 -999 -999 -999 -999
2007-09-27 07:19:52 51°12.082 2°47.903 -999 -999 -999 -999
2007-09-27 07:19:57 51°12.076 2°47.873 -999 -999 -999 -999
2007-09-27 07:20:02 51°12.071 2°47.842 -999 -999 -999 -999
2007-09-27 07:20:07 51°12.064 2°47.811 -999 -999 -999 -999
2007-09-27 07:20:12 51°12.061 2°47.78 -999 -999 -999 -999
2007-09-27 07:20:17 51°12.053 2°47.749 -999 -999 -999 -999
2007-09-27 07:20:22 51°12.049 2°47.718 -999 -999 -999 -999
2007-09-27 07:20:27 51°12.041 2°47.688 -999 -999 -999 -999
2007-09-27 07:20:32 51°12.037 2°47.657 -999 -999 -999 -999
2007-09-27 07:20:37 51°12.029 2°47.627 -999 -999 -999 -999
2007-09-27 07:20:42 51°12.025 2°47.595 -999 -999 -999 -999
2007-09-27 07:20:47 51°12.018 2°47.565 -999 -999 -999 -999
2007-09-27 07:20:52 51°12.013 2°47.534 -999 -999 -999 -999
2007-09-27 07:20:57 51°12.008 2°47.502 -999 -999 -999 -999
2007-09-27 07:21:02 51°12.001 2°47.472 -999 -999 -999 -999
2007-09-27 07:21:07 51°11.997 2°47.441 -999 -999 -999 -999
2007-09-27 07:21:12 51°11.991 2°47.409 -999 -999 -999 -999
2007-09-27 07:21:17 51°11.986 2°47.378 -999 -999 -999 -999
2007-09-27 07:21:22 51°11.98 2°47.348 -999 -999 -999 -999
2007-09-27 07:21:27 51°11.975 2°47.316 -999 -999 -999 -999
2007-09-27 07:21:32 51°11.97 2°47.285 -999 -999 -999 -999
2007-09-27 07:21:37 51°11.964 2°47.255 -999 -999 -999 -999
2007-09-27 07:21:42 51°11.96 2°47.223 -999 -999 -999 -999
2007-09-27 07:21:47 51°11.954 2°47.191 -999 -999 -999 -999
2007-09-27 07:21:52 51°11.95 2°47.16 -999 -999 -999 -999
2007-09-27 07:21:57 51°11.943 2°47.13 -999 -999 -999 -999
2007-09-27 07:22:02 51°11.941 2°47.097 -999 -999 -999 -999
2007-09-27 07:22:07 51°11.935 2°47.067 -999 -999 -999 -999
2007-09-27 07:22:12 51°11.932 2°47.036 -999 -999 -999 -999
2007-09-27 07:22:17 51°11.928 2°47.004 -999 -999 -999 -999
2007-09-27 07:22:22 51°11.923 2°46.972 -999 -999 -999 -999
2007-09-27 07:22:27 51°11.92 2°46.941 -999 -999 -999 -999
2007-09-27 07:22:32 51°11.915 2°46.91 -999 -999 -999 -999
2007-09-27 07:22:37 51°11.911 2°46.878 -999 -999 -999 -999
2007-09-27 07:22:41 51°11.908 2°46.853 -999 -999 -999 -999
2007-09-27 07:22:46 51°11.904 2°46.821 -999 -999 -999 -999
2007-09-27 07:22:52 51°11.898 2°46.784 -999 -999 -999 -999
2007-09-27 07:22:56 51°11.895 2°46.758 -999 -999 -999 -999
2007-09-27 07:23:01 51°11.891 2°46.727 -999 -999 -999 -999
2007-09-27 07:23:06 51°11.887 2°46.695 -999 -999 -999 -999
2007-09-27 07:23:12 51°11.882 2°46.658 -999 -999 -999 -999
2007-09-27 07:23:17 51°11.877 2°46.627 -999 -999 -999 -999
2007-09-27 07:23:22 51°11.875 2°46.595 -999 -999 -999 -999
2007-09-27 07:23:27 51°11.868 2°46.565 -999 -999 -999 -999
2007-09-27 07:23:32 51°11.865 2°46.533 -999 -999 -999 -999
2007-09-27 07:23:37 51°11.859 2°46.503 -999 -999 -999 -999
2007-09-27 07:23:42 51°11.855 2°46.471 -999 -999 -999 -999
2007-09-27 07:23:47 51°11.852 2°46.44 -999 -999 -999 -999
2007-09-27 07:23:52 51°11.847 2°46.409 -999 -999 -999 -999
2007-09-27 07:23:57 51°11.843 2°46.378 -999 -999 -999 -999
2007-09-27 07:24:02 51°11.837 2°46.348 -999 -999 -999 -999
2007-09-27 07:24:07 51°11.834 2°46.315 -999 -999 -999 -999
2007-09-27 07:24:12 51°11.828 2°46.285 -999 -999 -999 -999
2007-09-27 07:24:17 51°11.824 2°46.254 -999 -999 -999 -999
2007-09-27 07:24:22 51°11.821 2°46.223 -999 -999 -999 -999
2007-09-27 07:24:27 51°11.816 2°46.191 -999 -999 -999 -999
2007-09-27 07:24:32 51°11.812 2°46.159 -999 -999 -999 -999
2007-09-27 07:24:37 51°11.808 2°46.128 -999 -999 -999 -999
2007-09-27 07:24:42 51°11.804 2°46.096 -999 -999 -999 -999
2007-09-27 07:24:47 51°11.799 2°46.065 -999 -999 -999 -999
2007-09-27 07:24:52 51°11.796 2°46.033 -999 -999 -999 -999
2007-09-27 07:24:57 51°11.791 2°46.002 -999 -999 -999 -999
2007-09-27 07:25:02 51°11.787 2°45.971 -999 -999 -999 -999
2007-09-27 07:25:07 51°11.784 2°45.939 -999 -999 -999 -999
2007-09-27 07:25:12 51°11.778 2°45.908 -999 -999 -999 -999
2007-09-27 07:25:17 51°11.774 2°45.876 -999 -999 -999 -999
2007-09-27 07:25:22 51°11.771 2°45.844 -999 -999 -999 -999
2007-09-27 07:25:27 51°11.765 2°45.813 -999 -999 -999 -999
2007-09-27 07:25:32 51°11.763 2°45.782 -999 -999 -999 -999
2007-09-27 07:25:37 51°11.758 2°45.75 -999 -999 -999 -999
2007-09-27 07:25:42 51°11.754 2°45.719 -999 -999 -999 -999
2007-09-27 07:25:47 51°11.749 2°45.688 -999 -999 -999 -999
2007-09-27 07:25:52 51°11.746 2°45.656 -999 -999 -999 -999
2007-09-27 07:25:57 51°11.742 2°45.625 -999 -999 -999 -999
2007-09-27 07:26:02 51°11.738 2°45.594 -999 -999 -999 -999
2007-09-27 07:26:07 51°11.734 2°45.562 -999 -999 -999 -999
2007-09-27 07:26:12 51°11.73 2°45.531 -999 -999 -999 -999
2007-09-27 07:26:17 51°11.726 2°45.5 -999 -999 -999 -999
2007-09-27 07:26:22 51°11.722 2°45.468 -999 -999 -999 -999
2007-09-27 07:26:27 51°11.717 2°45.437 -999 -999 -999 -999
2007-09-27 07:26:32 51°11.713 2°45.406 -999 -999 -999 -999
2007-09-27 07:26:37 51°11.709 2°45.375 -999 -999 -999 -999
2007-09-27 07:26:42 51°11.705 2°45.344 -999 -999 -999 -999
2007-09-27 07:26:47 51°11.7 2°45.312 -999 -999 -999 -999
2007-09-27 07:26:52 51°11.697 2°45.281 -999 -999 -999 -999
2007-09-27 07:26:57 51°11.693 2°45.25 -999 -999 -999 -999
2007-09-27 07:27:02 51°11.689 2°45.218 -999 -999 -999 -999
2007-09-27 07:27:07 51°11.686 2°45.186 -999 -999 -999 -999
2007-09-27 07:27:12 51°11.681 2°45.155 -999 -999 -999 -999
2007-09-27 07:27:17 51°11.678 2°45.124 -999 -999 -999 -999
2007-09-27 07:27:22 51°11.673 2°45.093 -999 -999 -999 -999
2007-09-27 07:27:27 51°11.67 2°45.062 -999 -999 -999 -999
2007-09-27 07:27:32 51°11.666 2°45.03 -999 -999 -999 -999
2007-09-27 07:27:37 51°11.661 2°44.999 -999 -999 -999 -999
2007-09-27 07:27:42 51°11.659 2°44.968 -999 -999 -999 -999
2007-09-27 07:27:47 51°11.652 2°44.937 -999 -999 -999 -999
2007-09-27 07:27:52 51°11.651 2°44.905 -999 -999 -999 -999
2007-09-27 07:27:57 51°11.645 2°44.874 -999 -999 -999 -999
2007-09-27 07:28:02 51°11.642 2°44.843 -999 -999 -999 -999
2007-09-27 07:28:07 51°11.637 2°44.812 -999 -999 -999 -999
2007-09-27 07:28:12 51°11.633 2°44.78 -999 -999 -999 -999
2007-09-27 07:28:17 51°11.629 2°44.749 -999 -999 -999 -999
2007-09-27 07:28:22 51°11.625 2°44.719 -999 -999 -999 -999
2007-09-27 07:28:27 51°11.621 2°44.687 -999 -999 -999 -999
2007-09-27 07:28:32 51°11.617 2°44.656 -999 -999 -999 -999
2007-09-27 07:28:37 51°11.613 2°44.625 -999 -999 -999 -999
2007-09-27 07:28:42 51°11.61 2°44.595 -999 -999 -999 -999
2007-09-27 07:28:47 51°11.606 2°44.563 -999 -999 -999 -999
2007-09-27 07:28:52 51°11.604 2°44.531 -999 -999 -999 -999
2007-09-27 07:28:57 51°11.601 2°44.5 -999 -999 -999 -999
2007-09-27 07:29:02 51°11.598 2°44.47 -999 -999 -999 -999
2007-09-27 07:29:07 51°11.595 2°44.438 -999 -999 -999 -999
2007-09-27 07:29:12 51°11.593 2°44.407 -999 -999 -999 -999
2007-09-27 07:29:16 51°11.589 2°44.382 -999 -999 -999 -999
2007-09-27 07:29:22 51°11.586 2°44.346 -999 -999 -999 -999
2007-09-27 07:29:27 51°11.583 2°44.314 -999 -999 -999 -999
2007-09-27 07:29:32 51°11.581 2°44.282 -999 -999 -999 -999
2007-09-27 07:29:36 51°11.578 2°44.258 -999 -999 -999 -999
2007-09-27 07:29:42 51°11.576 2°44.22 -999 -999 -999 -999
2007-09-27 07:29:47 51°11.573 2°44.189 -999 -999 -999 -999
2007-09-27 07:29:52 51°11.571 2°44.158 -999 -999 -999 -999
2007-09-27 07:29:56 51°11.569 2°44.134 -999 -999 -999 -999
2007-09-27 07:30:02 51°11.567 2°44.098 -999 -999 -999 -999
2007-09-27 07:30:07 51°11.564 2°44.068 -999 -999 -999 -999
2007-09-27 07:30:12 51°11.562 2°44.038 -999 -999 -999 -999
2007-09-27 07:30:16 51°11.56 2°44.014 -999 -999 -999 -999
2007-09-27 07:30:22 51°11.558 2°43.979 -999 -999 -999 -999
2007-09-27 07:30:27 51°11.555 2°43.949 -999 -999 -999 -999
2007-09-27 07:30:32 51°11.553 2°43.919 -999 -999 -999 -999
2007-09-27 07:30:36 51°11.552 2°43.896 -999 -999 -999 -999
2007-09-27 07:30:42 51°11.549 2°43.861 -999 -999 -999 -999
2007-09-27 07:30:47 51°11.549 2°43.831 -999 -999 -999 -999
2007-09-27 07:30:52 51°11.545 2°43.803 -999 -999 -999 -999
2007-09-27 07:30:56 51°11.544 2°43.78 -999 -999 -999 -999
2007-09-27 07:31:02 51°11.541 2°43.744 -999 -999 -999 -999
2007-09-27 07:31:07 51°11.54 2°43.716 -999 -999 -999 -999
2007-09-27 07:31:12 51°11.537 2°43.687 -999 -999 -999 -999
2007-09-27 07:31:16 51°11.535 2°43.664 -999 -999 -999 -999
2007-09-27 07:31:22 51°11.533 2°43.629 -999 -999 -999 -999
2007-09-27 07:31:27 51°11.532 2°43.6 -999 -999 -999 -999
2007-09-27 07:31:32 51°11.529 2°43.573 -999 -999 -999 -999
2007-09-27 07:31:36 51°11.528 2°43.551 -999 -999 -999 -999
2007-09-27 07:31:42 51°11.526 2°43.515 -999 -999 -999 -999
2007-09-27 07:31:47 51°11.523 2°43.485 -999 -999 -999 -999
2007-09-27 07:31:52 51°11.522 2°43.457 -999 -999 -999 -999
2007-09-27 07:31:56 51°11.52 2°43.435 -999 -999 -999 -999
2007-09-27 07:32:02 51°11.518 2°43.4 -999 -999 -999 -999
2007-09-27 07:32:07 51°11.516 2°43.37 -999 -999 -999 -999
2007-09-27 07:32:12 51°11.514 2°43.342 -999 -999 -999 -999
2007-09-27 07:32:16 51°11.513 2°43.319 -999 -999 -999 -999
2007-09-27 07:32:22 51°11.51 2°43.284 -999 -999 -999 -999
2007-09-27 07:32:27 51°11.508 2°43.255 -999 -999 -999 -999
2007-09-27 07:32:32 51°11.506 2°43.227 -999 -999 -999 -999
2007-09-27 07:32:36 51°11.504 2°43.204 -999 -999 -999 -999
2007-09-27 07:32:42 51°11.502 2°43.168 -999 -999 -999 -999
2007-09-27 07:32:47 51°11.501 2°43.139 -999 -999 -999 -999
2007-09-27 07:32:52 51°11.498 2°43.11 -999 -999 -999 -999
2007-09-27 07:32:56 51°11.497 2°43.087 -999 -999 -999 -999
2007-09-27 07:33:02 51°11.492 2°43.053 -999 -999 -999 -999
2007-09-27 07:33:07 51°11.491 2°43.024 -999 -999 -999 -999
2007-09-27 07:33:12 51°11.488 2°42.995 -999 -999 -999 -999
2007-09-27 07:33:16 51°11.487 2°42.972 -999 -999 -999 -999
2007-09-27 07:33:22 51°11.484 2°42.938 -999 -999 -999 -999
2007-09-27 07:33:27 51°11.483 2°42.909 -999 -999 -999 -999
2007-09-27 07:33:32 51°11.479 2°42.88 -999 -999 -999 -999
2007-09-27 07:33:36 51°11.479 2°42.857 -999 -999 -999 -999
2007-09-27 07:33:42 51°11.476 2°42.823 -999 -999 -999 -999
2007-09-27 07:33:47 51°11.475 2°42.795 -999 -999 -999 -999
2007-09-27 07:33:52 51°11.471 2°42.766 -999 -999 -999 -999
2007-09-27 07:33:56 51°11.471 2°42.743 -999 -999 -999 -999
2007-09-27 07:34:02 51°11.468 2°42.709 -999 -999 -999 -999
2007-09-27 07:34:07 51°11.467 2°42.68 -999 -999 -999 -999
2007-09-27 07:34:12 51°11.464 2°42.651 -999 -999 -999 -999
2007-09-27 07:34:17 51°11.463 2°42.622 -999 -999 -999 -999
2007-09-27 07:34:22 51°11.46 2°42.593 -999 -999 -999 -999
2007-09-27 07:34:27 51°11.459 2°42.564 -999 -999 -999 -999
2007-09-27 07:34:32 51°11.456 2°42.535 -999 -999 -999 -999
2007-09-27 07:34:37 51°11.455 2°42.505 -999 -999 -999 -999
2007-09-27 07:34:42 51°11.453 2°42.476 -999 -999 -999 -999
2007-09-27 07:34:47 51°11.45 2°42.447 -999 -999 -999 -999
2007-09-27 07:34:52 51°11.448 2°42.419 -999 -999 -999 -999
2007-09-27 07:34:57 51°11.445 2°42.39 -999 -999 -999 -999
2007-09-27 07:35:02 51°11.445 2°42.361 -999 -999 -999 -999
2007-09-27 07:35:07 51°11.442 2°42.332 -999 -999 -999 -999
2007-09-27 07:35:12 51°11.441 2°42.303 -999 -999 -999 -999
2007-09-27 07:35:17 51°11.437 2°42.274 -999 -999 -999 -999
2007-09-27 07:35:22 51°11.436 2°42.245 -999 -999 -999 -999
2007-09-27 07:35:27 51°11.432 2°42.215 -999 -999 -999 -999
2007-09-27 07:35:32 51°11.431 2°42.186 -999 -999 -999 -999
2007-09-27 07:35:37 51°11.428 2°42.158 -999 -999 -999 -999
2007-09-27 07:35:42 51°11.426 2°42.128 -999 -999 -999 -999
2007-09-27 07:35:47 51°11.423 2°42.099 -999 -999 -999 -999
2007-09-27 07:35:52 51°11.42 2°42.07 -999 -999 -999 -999
2007-09-27 07:35:57 51°11.418 2°42.041 -999 -999 -999 -999
2007-09-27 07:36:02 51°11.415 2°42.012 -999 -999 -999 -999
2007-09-27 07:36:07 51°11.412 2°41.982 -999 -999 -999 -999
2007-09-27 07:36:12 51°11.411 2°41.952 -999 -999 -999 -999
2007-09-27 07:36:17 51°11.407 2°41.923 -999 -999 -999 -999
2007-09-27 07:36:22 51°11.405 2°41.893 -999 -999 -999 -999
2007-09-27 07:36:27 51°11.4 2°41.865 -999 -999 -999 -999
2007-09-27 07:36:32 51°11.398 2°41.835 -999 -999 -999 -999
2007-09-27 07:36:37 51°11.393 2°41.805 -999 -999 -999 -999
2007-09-27 07:36:42 51°11.389 2°41.775 -999 -999 -999 -999
2007-09-27 07:36:47 51°11.383 2°41.746 -999 -999 -999 -999
2007-09-27 07:36:52 51°11.38 2°41.716 -999 -999 -999 -999
2007-09-27 07:36:57 51°11.374 2°41.688 -999 -999 -999 -999
2007-09-27 07:37:02 51°11.369 2°41.658 -999 -999 -999 -999
2007-09-27 07:37:07 51°11.362 2°41.629 -999 -999 -999 -999
2007-09-27 07:37:12 51°11.358 2°41.6 -999 -999 -999 -999
2007-09-27 07:37:16 51°11.352 2°41.578 -999 -999 -999 -999
2007-09-27 07:37:22 51°11.345 2°41.544 -999 -999 -999 -999
2007-09-27 07:37:27 51°11.339 2°41.514 -999 -999 -999 -999
2007-09-27 07:37:32 51°11.333 2°41.485 -999 -999 -999 -999
2007-09-27 07:37:36 51°11.327 2°41.463 -999 -999 -999 -999
2007-09-27 07:37:42 51°11.32 2°41.428 -999 -999 -999 -999
2007-09-27 07:37:47 51°11.313 2°41.4 -999 -999 -999 -999
2007-09-27 07:37:52 51°11.306 2°41.371 -999 -999 -999 -999
2007-09-27 07:37:56 51°11.301 2°41.347 -999 -999 -999 -999
2007-09-27 07:38:02 51°11.293 2°41.313 -999 -999 -999 -999
2007-09-27 07:38:07 51°11.287 2°41.285 -999 -999 -999 -999
2007-09-27 07:38:12 51°11.281 2°41.256 -999 -999 -999 -999
2007-09-27 07:38:16 51°11.276 2°41.232 -999 -999 -999 -999
2007-09-27 07:38:22 51°11.268 2°41.196 -999 -999 -999 -999
2007-09-27 07:38:27 51°11.262 2°41.167 -999 -999 -999 -999
2007-09-27 07:38:32 51°11.253 2°41.141 -999 -999 -999 -999
2007-09-27 07:38:36 51°11.245 2°41.119 -999 -999 -999 -999
2007-09-27 07:38:42 51°11.235 2°41.085 -999 -999 -999 -999
2007-09-27 07:38:47 51°11.223 2°41.06 -999 -999 -999 -999
2007-09-27 07:38:52 51°11.215 2°41.033 -999 -999 -999 -999
2007-09-27 07:38:56 51°11.204 2°41.015 -999 -999 -999 -999
2007-09-27 07:39:02 51°11.191 2°40.982 -999 -999 -999 -999
2007-09-27 07:39:07 51°11.179 2°40.959 -999 -999 -999 -999
2007-09-27 07:39:12 51°11.167 2°40.935 -999 -999 -999 -999
2007-09-27 07:39:17 51°11.155 2°40.91 -999 -999 -999 -999
2007-09-27 07:39:22 51°11.142 2°40.887 -999 -999 -999 -999
2007-09-27 07:39:27 51°11.129 2°40.862 -999 -999 -999 -999
2007-09-27 07:39:32 51°11.117 2°40.838 -999 -999 -999 -999
2007-09-27 07:39:37 51°11.104 2°40.815 -999 -999 -999 -999
2007-09-27 07:39:42 51°11.092 2°40.789 -999 -999 -999 -999
2007-09-27 07:39:47 51°11.08 2°40.764 -999 -999 -999 -999
2007-09-27 07:39:52 51°11.068 2°40.74 -999 -999 -999 -999
2007-09-27 07:39:57 51°11.057 2°40.714 -999 -999 -999 -999
2007-09-27 07:40:02 51°11.043 2°40.691 -999 -999 -999 -999
2007-09-27 07:40:07 51°11.031 2°40.665 -999 -999 -999 -999
2007-09-27 07:40:12 51°11.019 2°40.641 -999 -999 -999 -999
2007-09-27 07:40:17 51°11.005 2°40.617 -999 -999 -999 -999
2007-09-27 07:40:22 51°10.994 2°40.591 -999 -999 -999 -999
2007-09-27 07:40:27 51°10.979 2°40.569 -999 -999 -999 -999
2007-09-27 07:40:32 51°10.968 2°40.543 -999 -999 -999 -999
2007-09-27 07:40:37 51°10.955 2°40.52 -999 -999 -999 -999
2007-09-27 07:40:42 51°10.942 2°40.496 -999 -999 -999 -999
2007-09-27 07:40:47 51°10.93 2°40.471 -999 -999 -999 -999
2007-09-27 07:40:52 51°10.918 2°40.446 -999 -999 -999 -999
2007-09-27 07:40:56 51°10.908 2°40.427 -999 -999 -999 -999
2007-09-27 07:41:02 51°10.893 2°40.396 -999 -999 -999 -999
2007-09-27 07:41:07 51°10.88 2°40.371 -999 -999 -999 -999
2007-09-27 07:41:12 51°10.869 2°40.346 -999 -999 -999 -999
2007-09-27 07:41:17 51°10.857 2°40.323 -999 -999 -999 -999
2007-09-27 07:41:22 51°10.844 2°40.297 -999 -999 -999 -999
2007-09-27 07:41:27 51°10.832 2°40.273 -999 -999 -999 -999
2007-09-27 07:41:32 51°10.818 2°40.25 -999 -999 -999 -999
2007-09-27 07:41:37 51°10.808 2°40.224 -999 -999 -999 -999
2007-09-27 07:41:42 51°10.796 2°40.202 -999 -999 -999 -999
2007-09-27 07:41:47 51°10.783 2°40.176 -999 -999 -999 -999
2007-09-27 07:41:52 51°10.77 2°40.152 -999 -999 -999 -999
2007-09-27 07:41:57 51°10.758 2°40.127 -999 -999 -999 -999
2007-09-27 07:42:02 51°10.747 2°40.106 -999 -999 -999 -999
2007-09-27 07:42:07 51°10.734 2°40.081 -999 -999 -999 -999
2007-09-27 07:42:12 51°10.723 2°40.058 -999 -999 -999 -999
2007-09-27 07:42:17 51°10.712 2°40.038 -999 -999 -999 -999
2007-09-27 07:42:22 51°10.703 2°40.02 -999 -999 -999 -999
2007-09-27 07:42:27 51°10.694 2°40.001 -999 -999 -999 -999
2007-09-27 07:42:32 51°10.686 2°39.984 -999 -999 -999 -999
2007-09-27 07:42:36 51°10.68 2°39.972 -999 -999 -999 -999
2007-09-27 07:42:42 51°10.672 2°39.952 -999 -999 -999 -999
2007-09-27 07:42:47 51°10.665 2°39.938 -999 -999 -999 -999
2007-09-27 07:42:52 51°10.66 2°39.923 -999 -999 -999 -999
2007-09-27 07:42:56 51°10.654 2°39.914 -999 -999 -999 -999
2007-09-27 07:43:02 51°10.647 2°39.898 -999 -999 -999 -999
2007-09-27 07:43:07 51°10.642 2°39.885 -999 -999 -999 -999
2007-09-27 07:43:12 51°10.636 2°39.874 -999 -999 -999 -999
2007-09-27 07:43:17 51°10.632 2°39.863 -999 -999 -999 -999
2007-09-27 07:43:22 51°10.627 2°39.852 -999 -999 -999 -999
2007-09-27 07:43:27 51°10.622 2°39.842 -999 -999 -999 -999
2007-09-27 07:43:32 51°10.617 2°39.832 -999 -999 -999 -999
2007-09-27 07:43:37 51°10.613 2°39.822 -999 -999 -999 -999
2007-09-27 07:43:42 51°10.607 2°39.813 -999 -999 -999 -999
2007-09-27 07:43:47 51°10.603 2°39.804 -999 -999 -999 -999
2007-09-27 07:43:52 51°10.599 2°39.795 -999 -999 -999 -999
2007-09-27 07:43:57 51°10.595 2°39.788 -999 -999 -999 -999
2007-09-27 07:44:02 51°10.591 2°39.78 -999 -999 -999 -999
2007-09-27 07:44:07 51°10.586 2°39.773 -999 -999 -999 -999
2007-09-27 07:44:12 51°10.582 2°39.765 -999 -999 -999 -999
2007-09-27 07:44:17 51°10.578 2°39.757 -999 -999 -999 -999
2007-09-27 07:44:22 51°10.574 2°39.749 -999 -999 -999 -999
2007-09-27 07:44:27 51°10.57 2°39.742 -999 -999 -999 -999
2007-09-27 07:44:32 51°10.566 2°39.735 -999 -999 -999 -999
2007-09-27 07:44:37 51°10.563 2°39.728 -999 -999 -999 -999
2007-09-27 07:44:42 51°10.559 2°39.721 -999 -999 -999 -999
2007-09-27 07:44:47 51°10.556 2°39.714 -999 -999 -999 -999
2007-09-27 07:44:52 51°10.551 2°39.708 -999 -999 -999 -999
2007-09-27 07:44:56 51°10.549 2°39.702 -999 -999 -999 -999
2007-09-27 07:45:02 51°10.544 2°39.696 -999 -999 -999 -999
2007-09-27 07:45:07 51°10.541 2°39.688 -999 -999 -999 -999
2007-09-27 07:45:12 51°10.537 2°39.682 -999 -999 -999 -999
2007-09-27 07:45:17 51°10.533 2°39.674 -999 -999 -999 -999
2007-09-27 07:45:22 51°10.53 2°39.668 -999 -999 -999 -999
2007-09-27 07:45:27 51°10.526 2°39.66 -999 -999 -999 -999
2007-09-27 07:45:32 51°10.523 2°39.651 -999 -999 -999 -999
2007-09-27 07:45:36 51°10.519 2°39.645 -999 -999 -999 -999
2007-09-27 07:45:42 51°10.516 2°39.635 -999 -999 -999 -999
2007-09-27 07:45:47 51°10.514 2°39.626 -999 -999 -999 -999
2007-09-27 07:45:52 51°10.511 2°39.618 -999 -999 -999 -999
2007-09-27 07:45:56 51°10.511 2°39.611 -999 -999 -999 -999
2007-09-27 07:46:02 51°10.508 2°39.603 -999 -999 -999 -999
2007-09-27 07:46:07 51°10.505 2°39.595 -999 -999 -999 -999
2007-09-27 07:46:12 51°10.504 2°39.588 -999 -999 -999 -999
2007-09-27 07:46:17 51°10.502 2°39.581 -999 -999 -999 -999
2007-09-27 07:46:22 51°10.501 2°39.573 -999 -999 -999 -999
2007-09-27 07:46:27 51°10.498 2°39.566 -999 -999 -999 -999
2007-09-27 07:46:32 51°10.496 2°39.56 -999 -999 -999 -999
2007-09-27 07:46:36 51°10.495 2°39.554 -999 -999 -999 -999
2007-09-27 07:46:42 51°10.493 2°39.546 -999 -999 -999 -999
2007-09-27 07:46:47 51°10.491 2°39.54 -999 -999 -999 -999
2007-09-27 07:46:52 51°10.49 2°39.534 -999 -999 -999 -999
2007-09-27 07:46:56 51°10.487 2°39.528 -999 -999 -999 -999
2007-09-27 07:47:02 51°10.486 2°39.522 -999 -999 -999 -999
2007-09-27 07:47:07 51°10.484 2°39.516 -999 -999 -999 -999
2007-09-27 07:47:12 51°10.483 2°39.509 -999 -999 -999 -999
2007-09-27 07:47:16 51°10.481 2°39.504 -999 -999 -999 -999
2007-09-27 07:47:22 51°10.48 2°39.497 -999 -999 -999 -999
2007-09-27 07:47:27 51°10.478 2°39.491 -999 -999 -999 -999
2007-09-27 07:47:32 51°10.477 2°39.485 -999 -999 -999 -999
2007-09-27 07:47:36 51°10.475 2°39.481 -999 -999 -999 -999
2007-09-27 07:47:42 51°10.473 2°39.474 -999 -999 -999 -999
2007-09-27 07:47:47 51°10.472 2°39.468 -999 -999 -999 -999
2007-09-27 07:47:52 51°10.471 2°39.463 -999 -999 -999 -999
2007-09-27 07:47:57 51°10.47 2°39.457 -999 -999 -999 -999
2007-09-27 07:48:02 51°10.468 2°39.452 -999 -999 -999 -999
2007-09-27 07:48:07 51°10.466 2°39.447 -999 -999 -999 -999
2007-09-27 07:48:12 51°10.465 2°39.441 -999 -999 -999 -999
2007-09-27 07:48:17 51°10.464 2°39.436 -999 -999 -999 -999
2007-09-27 07:48:22 51°10.462 2°39.431 -999 -999 -999 -999
2007-09-27 07:48:27 51°10.461 2°39.426 -999 -999 -999 -999
2007-09-27 07:48:32 51°10.459 2°39.421 -999 -999 -999 -999
2007-09-27 07:48:37 51°10.457 2°39.416 -999 -999 -999 -999
2007-09-27 07:48:42 51°10.455 2°39.411 -999 -999 -999 -999
2007-09-27 07:48:47 51°10.454 2°39.406 -999 -999 -999 -999
2007-09-27 07:48:52 51°10.453 2°39.401 -999 -999 -999 -999
2007-09-27 07:48:57 51°10.45 2°39.396 -999 -999 -999 -999
2007-09-27 07:49:02 51°10.45 2°39.392 -999 -999 -999 -999
2007-09-27 07:49:07 51°10.447 2°39.387 -999 -999 -999 -999
2007-09-27 07:49:12 51°10.447 2°39.383 -999 -999 -999 -999
2007-09-27 07:49:17 51°10.445 2°39.378 -999 -999 -999 -999
2007-09-27 07:49:22 51°10.443 2°39.374 -999 -999 -999 -999
2007-09-27 07:49:27 51°10.442 2°39.37 -999 -999 -999 -999
2007-09-27 07:49:32 51°10.441 2°39.366 -999 -999 -999 -999
2007-09-27 07:49:37 51°10.438 2°39.361 -999 -999 -999 -999
2007-09-27 07:49:42 51°10.438 2°39.358 -999 -999 -999 -999
2007-09-27 07:49:47 51°10.436 2°39.354 -999 -999 -999 -999
2007-09-27 07:49:52 51°10.434 2°39.35 -999 -999 -999 -999
2007-09-27 07:49:56 51°10.434 2°39.346 -999 -999 -999 -999
2007-09-27 07:50:02 51°10.431 2°39.342 -999 -999 -999 -999
2007-09-27 07:50:07 51°10.43 2°39.338 -999 -999 -999 -999
2007-09-27 07:50:12 51°10.428 2°39.334 -999 -999 -999 -999
2007-09-27 07:50:16 51°10.427 2°39.331 -999 -999 -999 -999
2007-09-27 07:50:22 51°10.424 2°39.326 -999 -999 -999 -999
2007-09-27 07:50:27 51°10.424 2°39.323 -999 -999 -999 -999
2007-09-27 07:50:32 51°10.421 2°39.318 -999 -999 -999 -999
2007-09-27 07:50:36 51°10.421 2°39.315 -999 -999 -999 -999
2007-09-27 07:50:42 51°10.419 2°39.311 -999 -999 -999 -999
2007-09-27 07:50:47 51°10.416 2°39.307 -999 -999 -999 -999
2007-09-27 07:50:52 51°10.415 2°39.303 -999 -999 -999 -999
2007-09-27 07:50:56 51°10.414 2°39.3 -999 -999 -999 -999
2007-09-27 07:51:02 51°10.412 2°39.297 -999 -999 -999 -999
2007-09-27 07:51:07 51°10.409 2°39.292 -999 -999 -999 -999
2007-09-27 07:51:12 51°10.408 2°39.289 -999 -999 -999 -999
2007-09-27 07:51:16 51°10.406 2°39.285 -999 -999 -999 -999
2007-09-27 07:51:22 51°10.404 2°39.281 -999 -999 -999 -999
2007-09-27 07:51:27 51°10.403 2°39.278 -999 -999 -999 -999
2007-09-27 07:51:32 51°10.401 2°39.273 -999 -999 -999 -999
2007-09-27 07:51:37 51°10.399 2°39.27 -999 -999 -999 -999
2007-09-27 07:51:42 51°10.397 2°39.266 -999 -999 -999 -999
2007-09-27 07:51:47 51°10.395 2°39.263 -999 -999 -999 -999
2007-09-27 07:51:52 51°10.393 2°39.258 -999 -999 -999 -999
2007-09-27 07:51:57 51°10.392 2°39.256 -999 -999 -999 -999
2007-09-27 07:52:02 51°10.389 2°39.252 -999 -999 -999 -999
2007-09-27 07:52:07 51°10.388 2°39.249 -999 -999 -999 -999
2007-09-27 07:52:12 51°10.385 2°39.244 -999 -999 -999 -999
2007-09-27 07:52:17 51°10.384 2°39.241 -999 -999 -999 -999
2007-09-27 07:52:22 51°10.382 2°39.238 -999 -999 -999 -999
2007-09-27 07:52:27 51°10.379 2°39.233 -999 -999 -999 -999
2007-09-27 07:52:32 51°10.378 2°39.231 -999 -999 -999 -999
2007-09-27 07:52:36 51°10.376 2°39.227 -999 -999 -999 -999
2007-09-27 07:52:42 51°10.373 2°39.223 -999 -999 -999 -999
2007-09-27 07:52:47 51°10.372 2°39.221 -999 -999 -999 -999
2007-09-27 07:52:52 51°10.369 2°39.216 -999 -999 -999 -999
2007-09-27 07:52:57 51°10.368 2°39.213 -999 -999 -999 -999
2007-09-27 07:53:02 51°10.365 2°39.209 -999 -999 -999 -999
2007-09-27 07:53:07 51°10.363 2°39.207 -999 -999 -999 -999
2007-09-27 07:53:12 51°10.361 2°39.203 -999 -999 -999 -999
2007-09-27 07:53:17 51°10.359 2°39.199 -999 -999 -999 -999
2007-09-27 07:53:22 51°10.358 2°39.196 -999 -999 -999 -999
2007-09-27 07:53:27 51°10.355 2°39.192 -999 -999 -999 -999
2007-09-27 07:53:32 51°10.353 2°39.189 -999 -999 -999 -999
2007-09-27 07:53:37 51°10.351 2°39.185 -999 -999 -999 -999
2007-09-27 07:53:42 51°10.349 2°39.182 -999 -999 -999 -999
2007-09-27 07:53:47 51°10.347 2°39.178 -999 -999 -999 -999
2007-09-27 07:53:52 51°10.345 2°39.175 -999 -999 -999 -999
2007-09-27 07:53:57 51°10.343 2°39.171 -999 -999 -999 -999
2007-09-27 07:54:02 51°10.341 2°39.168 -999 -999 -999 -999
2007-09-27 07:54:07 51°10.339 2°39.164 -999 -999 -999 -999
2007-09-27 07:54:12 51°10.337 2°39.161 -999 -999 -999 -999
2007-09-27 07:54:17 51°10.334 2°39.157 -999 -999 -999 -999
2007-09-27 07:54:22 51°10.333 2°39.154 -999 -999 -999 -999
2007-09-27 07:54:27 51°10.33 2°39.15 -999 -999 -999 -999
2007-09-27 07:54:32 51°10.329 2°39.147 -999 -999 -999 -999
2007-09-27 07:54:37 51°10.326 2°39.143 -999 -999 -999 -999
2007-09-27 07:54:42 51°10.325 2°39.14 -999 -999 -999 -999
2007-09-27 07:54:47 51°10.322 2°39.135 -999 -999 -999 -999
2007-09-27 07:54:52 51°10.321 2°39.132 -999 -999 -999 -999
2007-09-27 07:54:57 51°10.319 2°39.129 -999 -999 -999 -999
2007-09-27 07:55:02 51°10.317 2°39.125 -999 -999 -999 -999
2007-09-27 07:55:07 51°10.315 2°39.121 -999 -999 -999 -999
2007-09-27 07:55:12 51°10.313 2°39.117 -999 -999 -999 -999
2007-09-27 07:55:17 51°10.311 2°39.114 -999 -999 -999 -999
2007-09-27 07:55:22 51°10.309 2°39.11 -999 -999 -999 -999
2007-09-27 07:55:27 51°10.307 2°39.106 -999 -999 -999 -999
2007-09-27 07:55:32 51°10.306 2°39.103 -999 -999 -999 -999
2007-09-27 07:55:36 51°10.303 2°39.098 -999 -999 -999 -999
2007-09-27 07:55:42 51°10.301 2°39.094 -999 -999 -999 -999
2007-09-27 07:55:47 51°10.3 2°39.091 -999 -999 -999 -999
2007-09-27 07:55:52 51°10.298 2°39.087 -999 -999 -999 -999
2007-09-27 07:55:57 51°10.296 2°39.084 -999 -999 -999 -999
2007-09-27 07:56:02 51°10.294 2°39.08 -999 -999 -999 -999
2007-09-27 07:56:07 51°10.292 2°39.076 -999 -999 -999 -999
2007-09-27 07:56:12 51°10.29 2°39.072 -999 -999 -999 -999
2007-09-27 07:56:17 51°10.288 2°39.067 -999 -999 -999 -999
2007-09-27 07:56:22 51°10.286 2°39.064 -999 -999 -999 -999
2007-09-27 07:56:27 51°10.284 2°39.06 -999 -999 -999 -999
2007-09-27 07:56:32 51°10.282 2°39.056 -999 -999 -999 -999
2007-09-27 07:56:37 51°10.28 2°39.052 -999 -999 -999 -999
2007-09-27 07:56:42 51°10.278 2°39.049 -999 -999 -999 -999
2007-09-27 07:56:47 51°10.276 2°39.045 -999 -999 -999 -999
2007-09-27 07:56:52 51°10.274 2°39.041 -999 -999 -999 -999
2007-09-27 07:56:57 51°10.272 2°39.037 -999 -999 -999 -999
2007-09-27 07:57:02 51°10.27 2°39.034 -999 -999 -999 -999
2007-09-27 07:57:07 51°10.268 2°39.03 -999 -999 -999 -999
2007-09-27 07:57:12 51°10.266 2°39.026 -999 -999 -999 -999
2007-09-27 07:57:17 51°10.264 2°39.023 -999 -999 -999 -999
2007-09-27 07:57:22 51°10.262 2°39.019 -999 -999 -999 -999
2007-09-27 07:57:27 51°10.26 2°39.015 -999 -999 -999 -999
2007-09-27 07:57:32 51°10.258 2°39.011 -999 -999 -999 -999
2007-09-27 07:57:37 51°10.257 2°39.008 -999 -999 -999 -999
2007-09-27 07:57:42 51°10.253 2°39.003 -999 -999 -999 -999
2007-09-27 07:57:47 51°10.253 2°39.001 -999 -999 -999 -999
2007-09-27 07:57:52 51°10.25 2°38.997 -999 -999 -999 -999
2007-09-27 07:57:57 51°10.248 2°38.993 -999 -999 -999 -999
2007-09-27 07:58:02 51°10.247 2°38.989 -999 -999 -999 -999
2007-09-27 07:58:07 51°10.244 2°38.985 -999 -999 -999 -999
2007-09-27 07:58:12 51°10.243 2°38.982 -999 -999 -999 -999
2007-09-27 07:58:17 51°10.239 2°38.977 -999 -999 -999 -999
2007-09-27 07:58:22 51°10.239 2°38.975 -999 -999 -999 -999
2007-09-27 07:58:27 51°10.236 2°38.97 -999 -999 -999 -999
2007-09-27 07:58:32 51°10.235 2°38.967 -999 -999 -999 -999
2007-09-27 07:58:37 51°10.232 2°38.963 -999 -999 -999 -999
2007-09-27 07:58:42 51°10.231 2°38.96 -999 -999 -999 -999
2007-09-27 07:58:47 51°10.228 2°38.956 -999 -999 -999 -999